Date,TemperatureHighF,TemperatureAvgF,TemperatureLowF,DewpointHighF,DewpointAvgF,DewpointLowF,HumidityHigh,HumidityAvg,HumidityLow,PressureMaxIn,PressureMinIn,WindSpeedMaxMPH,WindSpeedAvgMPH,GustSpeedMaxMPH,PrecipitationSumIn
2013-1-1,29.7,15.8,1.0,15.5,7.5,-2.4,91,71,49,30.18,30.06,15,4,0,0.00
2013-1-2,29.5,22.8,16.2,13.9,8.5,3.0,63,54,41,30.32,30.14,23,12,0,0.00
2013-1-3,33.3,19.1,4.5,12.7,4.0,-4.6,67,52,38,30.34,30.20,8,4,0,0.00
2013-1-4,43.0,24.3,10.8,21.3,8.8,0.4,71,53,29,30.21,30.03,9,3,0,0.00
2013-1-5,41.2,26.9,10.4,17.3,9.6,3.5,78,49,32,30.31,30.05,15,6,0,0.00
2013-1-6,47.5,25.1,7.9,18.0,7.7,-2.7,80,51,18,30.30,29.90,9,4,0,0.00
2013-1-7,50.4,33.3,19.0,19.0,14.1,7.4,81,48,20,30.01,29.79,11,4,0,0.00
2013-1-8,52.2,37.6,23.0,23.1,18.8,14.7,71,48,30,30.24,29.75,19,7,0,0.00
2013-1-9,53.2,32.9,20.5,24.1,18.1,13.6,78,57,24,30.33,29.99,9,4,0,0.00
2013-1-10,42.3,28.1,16.0,24.3,19.0,12.0,84,69,46,29.99,29.40,9,4,0,0.00
2013-1-11,35.1,22.6,4.5,27.5,11.5,0.6,89,65,32,29.78,29.23,25,9,0,0.00
2013-1-12,17.1,6.3,-2.7,5.9,0.9,-6.8,89,79,58,29.98,29.76,10,3,0,0.00
2013-1-13,13.8,3.4,-6.7,5.7,-2.1,-10.7,88,78,59,30.09,29.95,7,3,0,0.00
2013-1-14,18.3,1.0,-8.5,2.7,-6.7,-13.7,84,71,43,30.13,29.99,9,5,0,0.00
2013-1-15,35.2,18.0,-6.9,18.8,5.0,-11.8,83,59,41,30.12,29.99,22,9,0,0.00
2013-1-16,52.0,37.7,24.6,22.1,18.7,13.8,65,47,29,30.40,30.10,24,10,0,0.00
2013-1-17,48.4,31.5,16.9,19.9,14.6,8.7,75,52,30,30.48,30.22,8,5,0,0.00
2013-1-18,59.4,42.7,22.8,12.7,8.2,6.2,55,26,13,30.21,30.03,23,9,0,0.00
2013-1-19,54.5,39.6,25.5,13.5,10.2,6.6,50,31,18,30.27,30.07,10,5,0,0.00
2013-1-20,48.6,31.3,10.8,15.5,10.4,5.4,83,46,19,30.29,30.14,23,7,0,0.00
2013-1-21,52.3,33.2,11.5,20.6,11.7,5.3,87,48,21,30.24,30.04,12,4,0,0.00
2013-1-22,56.3,38.8,22.8,14.7,9.5,2.7,57,32,15,30.19,30.01,10,4,0,0.00
2013-1-23,68.7,44.4,30.2,17.8,7.2,-4.8,40,23,10,30.20,30.10,12,5,0,0.00
2013-1-24,63.9,43.7,22.5,27.6,17.4,6.9,56,37,16,30.17,29.95,29,6,0,0.00
2013-1-25,56.1,39.5,22.8,29.6,24.8,18.7,84,57,34,30.21,30.06,11,4,0,0.00
2013-1-26,53.2,38.8,25.2,29.2,25.5,19.6,82,61,39,30.08,29.75,8,3,0,0.00
2013-1-27,56.1,39.8,27.3,34.2,28.9,24.0,93,68,37,29.77,29.67,13,5,0,0.00
2013-1-28,50.0,31.3,22.6,31.6,22.8,16.4,93,72,39,29.71,29.52,22,8,0,0.00
2013-1-29,33.8,23.1,9.9,22.2,7.0,-0.8,91,54,23,29.92,29.64,28,10,0,0.00
2013-1-30,40.6,26.0,7.0,18.7,10.5,0.5,82,53,36,29.90,29.76,32,12,0,0.00
2013-1-31,46.0,32.7,18.3,22.8,18.7,15.0,91,59,32,30.16,29.84,24,8,0,0.00
2013-2-1,49.5,32.5,16.3,27.3,19.2,13.2,92,61,30,30.18,30.01,31,9,0,0.00
2013-2-2,57.6,34.1,14.0,23.9,15.7,9.4,90,53,17,30.30,30.18,25,5,0,0.00
2013-2-3,53.6,35.7,17.8,18.3,11.0,3.2,73,41,17,30.26,29.89,20,5,0,0.00
2013-2-4,56.8,39.4,25.5,16.3,11.4,3.5,51,33,16,29.97,29.81,29,8,0,0.00
2013-2-5,52.2,38.4,23.5,23.2,17.3,11.3,60,43,31,30.06,29.83,14,5,0,0.00
2013-2-6,52.2,40.7,25.5,24.1,20.6,14.9,75,45,32,30.09,29.79,21,9,0,0.00
2013-2-7,46.6,29.4,14.7,20.1,14.9,7.9,92,59,29,30.18,30.02,11,5,0,0.00
2013-2-8,51.6,28.8,11.8,17.7,11.6,4.5,78,52,22,30.03,29.67,10,5,0,0.00
2013-2-9,40.1,29.6,22.1,27.9,18.2,11.2,83,62,48,29.68,29.48,23,12,0,0.00
2013-2-10,33.4,27.3,14.7,17.9,12.1,5.8,74,53,34,30.02,29.53,25,13,0,0.00
2013-2-11,30.4,18.7,7.5,15.5,9.8,-1.4,93,69,49,30.05,29.94,8,3,0,0.00
2013-2-12,43.3,27.8,9.3,7.5,2.5,-4.6,63,35,18,30.02,29.95,23,8,0,0.00
2013-2-13,48.9,31.3,12.2,17.1,11.7,3.7,70,46,27,30.01,29.87,29,8,0,0.00
2013-2-14,35.4,25.7,19.0,22.3,16.3,10.0,93,70,42,30.29,29.97,28,10,0,0.00
2013-2-15,37.0,26.5,14.7,20.1,14.6,7.7,97,65,34,30.30,30.21,35,11,0,0.00
2013-2-16,58.3,36.3,14.4,22.3,13.0,4.9,87,43,18,30.21,29.94,26,7,0,0.00
2013-2-17,61.2,38.9,21.7,20.2,9.8,3.8,75,35,10,29.95,29.52,26,10,0,0.00
2013-2-18,41.5,27.9,10.2,20.2,9.9,3.0,82,50,22,30.08,29.78,30,13,0,0.00
2013-2-19,39.6,22.7,6.8,15.8,9.5,2.4,83,60,34,30.08,29.79,10,4,0,0.00
2013-2-20,36.9,22.0,12.4,23.2,15.8,7.6,94,78,45,29.82,29.60,18,7,0,0.00
2013-2-21,28.4,20.5,13.5,20.4,16.3,11.4,96,84,69,29.85,29.67,21,7,0,0.00
2013-2-22,35.8,21.8,8.2,22.3,15.4,5.9,94,78,52,29.92,29.76,10,4,0,0.02
2013-2-23,41.4,26.0,10.2,26.2,15.0,6.7,95,66,34,29.80,29.58,8,5,0,0.00
2013-2-24,28.0,24.4,9.5,25.8,19.8,4.6,97,83,72,30.09,29.69,26,11,0,0.00
2013-2-25,33.6,18.7,2.3,19.2,11.3,-1.5,91,74,50,30.07,29.78,9,4,0,0.00
2013-2-26,34.5,27.5,12.9,22.2,17.1,10.5,90,65,49,30.13,29.75,23,13,0,0.00
2013-2-27,40.6,26.6,12.9,15.1,11.0,3.7,80,55,21,30.24,30.11,23,9,0,0.00
2013-2-28,44.6,33.2,14.5,15.6,9.6,5.0,78,39,23,30.25,30.12,25,12,0,0.00
2013-3-1,48.0,35.9,26.8,23.8,19.0,14.0,72,51,35,30.33,30.21,22,9,0,0.00
2013-3-2,62.4,44.1,25.9,27.5,24.4,17.8,73,49,22,30.31,30.03,12,5,0,0.00
2013-3-3,62.4,47.5,31.3,28.1,24.8,20.3,72,44,24,30.02,29.63,26,10,0,0.00
2013-3-4,45.7,27.3,15.4,26.6,15.9,6.8,87,63,40,30.21,29.64,29,13,0,0.00
2013-3-5,38.8,22.3,5.5,19.0,11.6,1.5,89,66,35,30.29,30.12,17,4,0,0.00
2013-3-6,54.5,33.0,12.4,25.8,18.3,9.0,87,59,24,30.13,29.84,11,6,0,0.00
2013-3-7,63.3,44.7,27.0,30.3,22.8,17.5,73,46,21,30.00,29.83,18,6,0,0.00
2013-3-8,49.3,33.6,25.2,31.4,25.9,21.5,87,74,49,29.99,29.67,9,5,0,0.00
2013-3-9,37.4,32.0,24.8,28.9,21.4,12.0,91,66,45,30.10,29.62,29,16,0,0.00
2013-3-10,47.5,30.6,16.2,19.1,14.6,10.8,79,54,29,30.11,30.01,31,12,0,0.00
2013-3-11,52.2,35.2,28.6,29.0,25.2,15.8,96,74,27,30.17,29.92,29,11,0,0.00
2013-3-12,37.2,29.2,22.3,26.9,24.1,17.9,95,82,60,30.33,30.17,9,5,0,0.07
2013-3-13,59.0,48.5,39.4,35.0,30.1,28.0,67,50,32,30.29,30.21,9,6,0,0.00
2013-3-14,68.5,54.3,38.8,30.7,27.4,24.5,68,37,19,30.34,30.15,16,6,0,0.00
2013-3-15,77.0,59.3,40.8,31.8,26.5,23.5,55,31,16,30.13,29.88,33,8,0,0.00
2013-3-16,53.2,44.1,31.8,34.8,29.6,23.2,79,57,40,30.06,29.80,21,7,0,0.00
2013-3-17,55.2,37.1,23.0,35.0,20.5,2.6,89,56,26,29.82,29.53,35,13,0,0.00
2013-3-18,49.8,36.6,21.0,17.4,9.3,2.8,46,32,20,29.92,29.80,29,13,0,0.00
2013-3-19,53.6,37.4,19.8,16.5,6.3,-5.9,80,33,9,30.38,29.89,27,13,0,0.00
2013-3-20,46.4,29.3,10.6,19.7,15.0,7.5,89,59,30,30.35,29.70,8,3,0,0.00
2013-3-21,52.0,38.8,30.7,36.9,19.4,6.7,79,48,23,29.84,29.54,31,9,0,0.00
2013-3-22,41.7,30.6,19.4,28.1,16.7,6.3,91,59,37,29.91,29.74,27,10,0,0.00
2013-3-23,24.4,19.0,8.6,20.0,12.2,4.8,85,75,56,30.15,29.87,22,12,0,0.00
2013-3-24,31.6,17.9,4.6,16.5,6.9,0.6,86,65,36,30.19,30.02,21,8,0,0.00
2013-3-25,36.0,21.7,10.4,17.2,12.0,6.3,92,68,41,30.25,30.14,12,4,0,0.00
2013-3-26,49.1,30.7,9.7,30.9,15.1,5.3,86,57,29,30.17,29.91,10,4,0,0.00
2013-3-27,55.9,39.0,25.3,33.1,28.2,21.7,95,69,40,30.13,29.99,13,5,0,0.00
2013-3-28,67.3,47.4,26.6,34.3,28.3,22.7,86,53,21,30.16,30.04,14,4,0,0.00
2013-3-29,66.4,47.3,32.0,37.5,29.2,24.1,81,53,24,30.16,30.05,17,6,0,0.00
2013-3-30,65.1,43.4,31.3,38.8,30.7,25.9,95,66,24,30.25,30.03,28,8,0,0.14
2013-3-31,70.7,45.5,22.6,37.8,27.0,17.2,94,57,14,30.23,29.92,19,6,0,0.00
2013-4-1,50.2,37.2,24.8,31.2,26.9,21.1,90,68,45,30.20,30.04,15,6,0,0.00
2013-4-2,43.3,37.0,32.7,36.3,32.1,28.4,96,82,71,30.15,30.07,9,4,0,0.02
2013-4-3,58.8,40.7,33.3,37.4,34.0,31.9,96,80,43,30.16,30.05,12,4,0,0.00
2013-4-4,68.5,54.8,45.1,35.3,30.5,28.1,52,41,26,30.14,30.01,9,4,0,0.00
2013-4-5,72.9,59.2,47.7,38.7,31.8,27.9,66,38,21,29.88,29.69,36,10,0,0.00
2013-4-6,62.4,51.7,35.1,29.4,25.6,21.4,62,38,23,29.96,29.85,23,8,0,0.00
2013-4-7,64.6,50.4,36.7,40.6,32.5,26.4,95,54,25,29.90,29.68,23,8,0,0.04
2013-4-8,65.8,39.7,21.0,36.5,28.3,13.6,90,68,28,29.86,29.46,40,16,0,0.00
2013-4-9,19.9,15.7,11.1,14.7,8.5,3.5,82,73,66,30.19,29.83,25,16,0,0.00
2013-4-10,36.1,21.4,6.1,20.6,13.2,0.4,95,72,45,30.15,29.87,21,9,0,0.00
2013-4-11,54.0,38.2,17.8,31.6,24.5,15.8,94,62,34,29.91,29.68,30,12,0,0.00
2013-4-12,52.2,39.6,28.9,33.6,30.5,27.3,97,72,46,30.01,29.88,27,9,0,0.00
2013-4-13,59.2,44.0,26.6,37.7,31.7,25.3,95,66,36,29.97,29.40,27,6,0,0.13
2013-4-14,45.5,38.3,30.6,29.6,15.2,9.8,65,40,24,29.75,29.46,28,14,0,0.00
2013-4-15,32.5,25.0,21.4,27.3,21.7,15.4,96,88,50,30.02,29.70,14,4,0,0.00
2013-4-16,30.2,25.7,21.4,28.4,24.8,20.4,99,96,91,30.03,29.84,17,5,0,0.00
2013-4-17,27.9,23.9,16.3,27.3,21.5,11.8,99,90,82,30.16,29.91,19,11,0,0.00
2013-4-18,36.5,23.8,6.3,18.7,12.8,2.5,84,63,44,30.14,30.04,26,13,0,0.00
2013-4-19,50.5,35.5,17.1,31.8,22.9,10.6,87,61,35,30.11,29.92,13,4,0,0.00
2013-4-20,53.6,41.4,26.8,37.5,31.5,24.2,90,70,46,30.03,29.91,21,5,0,0.01
2013-4-21,60.4,47.3,34.7,37.0,31.4,23.2,85,57,28,30.09,29.97,14,6,0,0.00
2013-4-22,42.1,30.2,21.0,37.3,26.9,19.8,96,88,75,30.33,29.92,35,11,0,0.00
2013-4-23,39.9,26.6,12.6,24.5,19.1,10.7,95,75,44,30.29,30.09,11,5,0,0.04
2013-4-24,54.0,38.6,21.6,24.8,19.9,14.3,90,53,22,30.23,30.10,29,8,0,0.00
2013-4-25,65.1,44.4,24.4,33.1,24.2,15.0,86,53,17,30.20,29.91,13,5,0,0.00
2013-4-26,69.4,53.4,36.7,28.8,23.0,15.5,71,35,14,30.27,30.03,13,6,0,0.00
2013-4-27,75.7,56.7,30.6,29.5,24.8,19.7,80,36,13,30.27,30.05,21,9,0,0.00
2013-4-28,81.9,63.2,41.0,37.1,29.8,24.5,60,30,17,30.06,29.84,36,9,0,0.00
2013-4-29,79.7,63.1,44.4,41.0,33.4,26.1,75,37,15,29.97,29.59,21,6,0,0.00
2013-4-30,58.1,45.0,32.2,40.8,34.3,29.0,99,69,33,30.06,29.64,26,10,0,0.43
2013-5-1,32.4,27.3,14.5,32.2,24.7,11.6,99,90,78,30.65,30.07,16,5,0,0.01
2013-5-2,44.2,28.8,8.8,26.2,19.0,6.0,90,69,39,30.71,30.46,11,6,0,0.13
2013-5-3,58.8,41.7,24.1,39.4,28.7,19.4,87,62,38,30.45,30.11,9,4,0,0.00
2013-5-4,59.7,46.6,36.9,36.5,32.8,29.2,89,61,35,30.28,30.13,14,6,0,0.00
2013-5-5,60.4,46.3,29.8,32.1,28.2,21.7,83,52,32,30.29,30.11,17,6,0,0.00
2013-5-6,68.7,52.3,34.7,40.0,33.9,29.8,84,54,26,30.14,29.92,15,6,0,0.00
2013-5-7,67.1,54.1,39.7,44.5,40.3,35.9,86,62,37,30.04,29.91,20,7,0,0.00
2013-5-8,70.3,52.2,43.2,46.9,42.2,36.6,95,71,32,30.15,29.98,18,8,0,0.13
2013-5-9,61.2,50.2,41.9,46.6,41.9,38.6,90,75,51,30.26,30.11,16,7,0,0.00
2013-5-10,69.8,54.4,38.8,45.7,37.6,32.0,95,59,25,30.40,30.22,20,8,0,0.00
2013-5-11,67.8,53.9,41.5,46.2,42.2,37.6,91,66,44,30.46,30.27,14,6,0,0.00
2013-5-12,80.4,64.5,44.1,43.9,38.0,33.6,92,43,20,30.29,30.12,21,9,0,0.00
2013-5-13,86.9,71.5,52.5,45.1,40.8,37.3,69,36,20,30.22,30.06,14,6,0,0.00
2013-5-14,87.1,70.2,49.6,47.5,42.0,36.2,75,39,18,30.09,29.92,19,6,0,0.00
2013-5-15,83.7,65.0,51.3,53.5,43.5,36.9,89,51,19,30.06,29.91,22,7,0,0.00
2013-5-16,80.2,64.3,49.1,52.8,47.9,41.6,94,60,26,30.00,29.82,12,5,0,0.00
2013-5-17,87.1,67.8,47.1,50.1,42.1,28.8,91,46,16,29.95,29.78,13,5,0,0.00
2013-5-18,77.5,63.2,51.1,40.6,35.1,28.7,54,37,20,29.94,29.77,34,11,0,0.00
2013-5-19,69.6,59.3,52.7,39.2,35.1,31.1,59,41,26,29.89,29.75,27,15,0,0.00
2013-5-20,63.1,53.6,46.0,44.3,39.8,35.4,88,61,41,30.05,29.88,33,16,0,0.17
2013-5-21,69.6,55.6,43.0,35.9,33.6,30.5,71,46,26,30.07,29.89,27,14,0,0.00
2013-5-22,73.9,56.5,35.4,44.3,39.2,33.0,91,56,31,30.14,29.91,17,8,0,0.00
2013-5-23,65.1,53.2,45.1,51.8,47.6,43.8,97,82,61,30.17,30.01,25,12,0,0.00
2013-5-24,83.3,64.8,46.8,54.2,47.1,35.9,99,61,20,30.05,29.93,16,6,0,0.01
2013-5-25,85.5,67.2,47.1,57.5,46.4,33.0,94,54,17,30.05,29.90,12,5,0,0.00
2013-5-26,84.2,68.3,54.5,48.2,38.4,27.0,73,36,14,29.98,29.88,14,8,0,0.00
2013-5-27,83.3,64.1,43.3,41.3,34.9,27.2,69,38,14,29.89,29.75,22,6,0,0.00
2013-5-28,78.8,61.8,45.3,48.8,42.8,34.9,74,52,25,29.85,29.57,20,8,0,0.00
2013-5-29,66.9,53.7,45.9,49.2,44.0,36.4,95,72,37,29.74,29.58,23,7,0,0.59
2013-5-30,70.3,58.2,44.8,38.4,32.6,27.5,68,41,21,29.88,29.65,25,10,0,0.00
2013-5-31,69.6,58.8,45.0,36.3,28.4,24.2,51,33,22,30.10,29.86,32,12,0,0.00
2013-6-1,71.4,57.2,42.4,39.5,36.4,33.5,82,48,27,30.29,30.10,38,14,0,0.00
2013-6-2,80.1,60.7,37.2,47.6,39.5,34.2,91,52,25,30.27,29.86,14,5,0,0.00
2013-6-3,88.0,68.3,43.9,45.4,36.8,24.2,81,38,17,29.99,29.75,19,8,0,0.00
2013-6-4,74.1,59.7,46.8,49.5,44.1,27.6,84,58,32,30.26,29.99,26,10,0,0.00
2013-6-5,63.7,52.8,43.9,46.6,42.9,39.2,92,70,52,30.30,30.15,12,6,0,0.00
2013-6-6,79.0,57.0,39.4,48.8,42.3,38.1,96,66,26,30.18,30.07,9,4,0,0.00
2013-6-8,80.4,69.8,52.7,46.1,42.4,35.4,69,40,20,30.11,29.92,25,10,0,0.00
2013-6-9,85.3,67.0,42.6,50.9,45.5,39.0,87,50,26,30.12,29.94,11,5,0,0.00
2013-6-10,95.9,74.8,48.7,56.9,45.6,38.9,75,39,19,30.01,29.87,15,5,0,0.00
2013-6-11,96.6,78.1,55.6,52.5,38.4,27.7,63,29,9,30.07,29.83,20,8,0,0.00
2013-6-12,88.5,74.0,54.7,54.0,40.8,25.8,71,32,19,30.25,30.06,17,7,0,0.00
2013-6-13,81.9,65.4,53.8,59.8,54.2,50.2,90,70,43,30.24,29.94,10,4,0,0.00
2013-6-14,93.2,72.1,52.3,55.0,45.4,35.0,83,45,15,30.09,29.95,20,8,0,0.09
2013-6-15,81.3,67.0,50.0,54.4,49.5,44.0,81,56,32,30.16,30.04,19,7,0,0.00
2013-6-16,83.3,67.5,51.3,58.8,48.3,35.9,95,55,22,30.18,30.08,17,6,0,0.00
2013-6-17,83.8,65.7,49.1,55.6,50.3,44.0,87,61,28,30.25,30.07,18,7,0,0.00
2013-6-18,83.3,68.6,55.6,57.7,50.9,44.8,87,56,31,30.24,29.94,21,7,0,0.00
2013-6-19,91.0,71.6,48.0,56.6,48.9,35.4,92,52,16,30.07,29.71,15,6,0,0.00
2013-6-20,88.2,72.4,53.1,57.0,39.7,29.0,85,35,15,29.99,29.82,15,6,0,0.00
2013-6-21,93.9,74.4,57.4,61.7,49.8,36.4,82,48,15,29.99,29.81,26,7,0,0.00
2013-6-22,86.7,68.9,49.6,60.6,50.9,32.0,81,56,16,30.04,29.80,24,7,0,0.00
2013-6-23,82.6,66.0,49.6,53.0,46.4,33.4,83,51,35,30.08,29.87,19,9,0,0.00
2013-6-24,92.1,72.3,52.3,56.1,45.4,28.4,82,44,13,29.97,29.77,16,5,0,0.00
2013-6-25,91.0,78.5,56.8,43.3,38.7,31.8,43,25,18,30.08,29.86,20,10,0,0.00
2013-6-26,95.0,78.3,55.4,52.2,44.4,37.3,52,32,17,30.18,30.07,10,4,0,0.00
2013-6-27,99.1,82.1,64.4,54.4,42.8,35.2,49,27,12,30.36,30.16,18,8,0,0.00
2013-6-28,96.8,77.3,59.5,60.4,53.4,46.3,82,48,22,30.36,30.18,16,8,0,0.00
2013-6-29,88.3,74.1,57.9,66.8,55.4,50.6,81,55,32,30.35,30.16,12,6,0,0.01
2013-6-30,82.9,70.1,58.1,58.0,53.8,50.8,80,58,39,30.31,30.21,12,5,0,0.00
2013-7-1,80.4,65.1,52.2,59.4,53.7,48.5,92,68,43,30.39,30.29,16,6,0,0.30
2013-7-2,83.3,68.3,52.0,58.1,53.7,48.0,94,64,35,30.36,30.19,14,5,0,0.00
2013-7-3,87.1,70.3,50.0,56.6,51.4,46.9,89,55,31,30.21,29.96,11,5,0,0.00
2013-7-4,94.8,78.2,59.4,51.0,47.0,41.8,73,36,17,30.06,29.93,15,7,0,0.00
2013-7-5,86.5,70.9,57.4,59.2,54.6,48.8,89,58,34,30.00,29.90,18,5,0,0.00
2013-7-6,93.4,74.9,57.0,55.9,51.4,40.0,89,49,18,30.06,29.92,19,7,0,0.00
2013-7-7,89.6,74.3,60.1,62.2,57.2,51.5,87,58,30,30.17,30.03,12,7,0,0.00
2013-7-8,93.2,72.3,55.9,59.3,54.3,50.1,88,58,25,30.20,30.07,12,5,0,0.12
2013-7-9,98.1,78.3,58.8,54.0,45.9,36.3,75,37,13,30.34,30.16,21,6,0,0.00
2013-7-10,89.8,74.2,56.7,63.0,55.6,48.0,77,54,37,30.35,30.05,14,6,0,0.00
2013-7-11,98.1,77.0,55.2,60.6,55.0,49.5,86,51,21,30.21,29.89,21,7,0,0.00
2013-7-12,94.1,74.9,65.5,64.6,56.2,48.3,86,55,27,30.16,29.98,15,6,0,0.01
2013-7-13,92.1,72.8,61.2,63.0,59.4,55.9,91,67,30,30.29,30.06,18,5,0,0.05
2013-7-14,80.4,69.9,59.5,64.9,60.6,56.9,91,74,53,30.33,30.14,24,8,0,0.00
2013-7-15,83.5,69.5,60.1,65.1,60.8,50.7,97,76,52,30.30,30.12,18,7,0,0.08
2013-7-16,84.0,69.2,49.1,56.9,51.6,46.3,90,57,35,30.31,30.17,17,8,0,0.00
2013-7-17,89.1,73.1,55.9,59.4,55.9,50.2,96,60,32,30.33,30.15,13,6,0,0.00
2013-7-18,93.6,71.7,57.7,61.4,56.2,51.7,94,65,27,30.32,30.11,16,7,0,1.74
2013-7-19,79.9,68.4,60.1,64.1,59.7,56.8,93,75,52,30.31,30.16,15,6,0,0.01
2013-7-20,86.9,68.2,55.8,64.8,56.9,51.2,97,71,34,30.19,30.01,35,5,0,0.00
2013-7-21,82.4,67.7,52.3,65.2,58.9,50.6,95,75,50,30.09,29.90,19,5,0,0.00
2013-7-22,90.5,75.9,59.0,63.5,57.7,47.2,89,56,34,30.06,29.96,14,6,0,0.00
2013-7-23,87.8,74.1,55.8,65.1,53.3,28.4,79,52,21,30.24,30.01,12,6,0,0.00
2013-7-24,85.6,70.4,58.6,66.1,58.7,50.4,90,69,35,30.31,30.06,25,7,0,0.00
2013-7-25,80.2,67.3,57.6,61.0,56.2,51.0,92,69,47,30.33,30.12,26,7,0,0.04
2013-7-26,84.4,68.7,54.0,59.7,53.5,48.6,89,61,35,30.36,30.19,14,6,0,0.00
2013-7-27,75.6,63.9,51.3,59.1,54.4,47.6,88,72,55,30.26,30.10,17,6,0,0.00
2013-7-28,70.9,61.9,57.4,62.6,57.8,54.2,94,87,72,30.17,29.99,12,4,0,0.14
2013-7-29,77.0,64.7,57.4,63.1,57.2,47.8,99,79,39,30.25,30.01,17,6,0,0.00
2013-7-30,87.1,70.5,53.8,59.3,53.8,48.6,84,59,31,30.35,30.19,11,5,0,0.02
2013-7-31,85.8,70.0,54.0,62.8,54.1,49.3,86,60,33,30.40,30.18,12,5,0,0.03
2013-8-1,92.1,70.3,52.9,62.2,54.5,49.1,97,62,24,30.31,30.00,14,5,0,0.00
2013-8-2,91.0,72.5,52.7,64.1,56.0,48.3,90,61,29,30.15,29.98,18,5,0,0.36
2013-8-3,86.4,67.0,59.2,67.6,60.9,54.8,97,83,47,30.31,30.09,23,7,0,1.05
2013-8-4,81.1,66.9,51.8,68.2,57.5,50.4,96,74,38,30.26,30.12,12,3,0,0.00
2013-8-5,85.5,67.8,55.9,60.8,55.2,50.5,91,67,38,30.17,30.08,14,4,0,0.02
2013-8-6,88.2,69.5,52.0,61.7,53.3,48.5,90,60,31,30.14,29.99,16,3,0,0.00
2013-8-7,72.0,63.1,55.0,60.4,56.2,51.7,96,79,62,30.19,30.06,12,4,0,0.00
2013-8-8,73.4,63.1,53.1,62.6,57.0,48.4,99,82,51,30.25,30.10,10,3,0,0.00
2013-8-9,78.1,63.6,47.3,58.9,51.8,45.0,92,68,41,30.29,30.17,11,4,0,0.00
2013-8-10,84.2,68.1,48.0,57.4,52.5,46.1,93,61,36,30.32,30.12,12,4,0,0.00
2013-8-11,80.4,68.6,57.7,55.0,51.8,49.4,80,57,35,30.29,30.16,12,4,0,0.00
2013-8-12,82.0,65.6,51.8,62.1,53.2,45.9,88,67,31,30.33,30.16,17,4,0,0.02
2013-8-13,81.3,64.6,48.0,57.3,51.1,44.9,89,65,32,30.32,30.20,11,4,0,0.00
2013-8-14,83.7,64.5,47.3,56.8,50.8,45.1,94,64,32,30.32,30.14,13,3,0,0.00
2013-8-15,84.9,66.2,49.3,61.8,51.5,44.6,86,61,35,30.26,30.11,9,3,0,0.00
2013-8-16,87.1,71.1,54.5,59.2,51.5,46.4,78,53,28,30.28,30.14,10,4,0,0.00
2013-8-17,90.7,72.4,54.3,63.8,56.3,51.1,96,61,26,30.26,30.03,10,3,0,0.00
2013-8-18,92.3,70.7,54.7,62.6,54.2,42.6,95,61,21,30.23,30.05,16,3,0,0.00
2013-8-19,94.3,74.2,52.3,61.8,51.3,47.0,82,50,23,30.21,30.03,12,3,0,0.00
2013-8-20,95.7,76.7,55.0,60.6,48.8,43.5,71,40,22,30.13,30.00,14,4,0,0.00
2013-8-21,89.4,76.7,64.2,58.1,51.8,45.7,73,44,29,30.26,30.09,14,6,0,0.01
2013-8-22,83.1,69.9,57.0,65.0,58.3,52.2,87,68,43,30.30,30.13,12,4,0,0.00
2013-8-23,86.4,70.8,55.2,62.1,56.9,49.5,95,65,40,30.25,29.99,14,5,0,0.00
2013-8-24,90.3,74.4,54.7,56.9,51.8,48.1,79,48,26,30.17,30.05,14,2,0,0.00
2013-8-25,92.1,74.9,55.8,58.8,52.5,47.2,73,49,25,30.23,30.11,16,5,0,0.00
2013-8-26,92.3,76.2,59.2,60.9,56.0,50.9,75,53,29,30.23,30.13,13,5,0,0.00
2013-8-27,91.9,76.8,60.1,60.3,56.8,53.0,79,53,32,30.22,30.08,14,4,0,0.00
2013-8-28,92.1,77.5,61.3,59.3,55.4,49.5,77,49,29,30.22,30.08,12,3,0,0.00
2013-8-29,96.3,77.2,59.9,56.4,50.9,47.2,65,43,21,30.27,30.17,14,4,0,0.00
2013-8-30,91.6,73.4,58.8,60.1,52.5,47.2,68,50,30,30.28,30.14,15,3,0,0.00
2013-8-31,92.5,72.4,56.5,58.9,51.5,45.9,83,52,22,30.23,30.09,15,5,0,0.00
2013-9-1,78.6,67.4,59.2,61.1,55.0,49.6,80,65,53,30.29,30.15,12,4,0,0.00
2013-9-2,88.2,70.5,52.7,64.7,56.5,49.9,92,64,41,30.22,30.05,10,3,0,0.00
2013-9-3,92.8,76.2,60.1,61.7,55.3,49.5,73,50,30,30.21,30.09,14,5,0,0.00
2013-9-4,95.4,76.7,61.9,59.7,54.5,51.9,77,49,25,30.28,30.18,13,5,0,0.00
2013-9-5,96.4,76.7,61.3,62.0,56.2,52.8,80,52,24,30.30,30.17,16,4,0,0.00
2013-9-6,97.9,76.4,63.5,61.2,51.7,48.5,66,44,21,30.25,30.13,21,5,0,0.01
2013-9-7,93.4,75.7,57.0,60.5,52.2,47.3,76,47,25,30.22,30.09,14,4,0,0.00
2013-9-8,92.3,73.5,56.1,55.2,49.3,44.9,66,45,23,30.12,29.91,16,6,0,0.01
2013-9-9,83.7,66.5,57.9,60.1,55.7,50.7,95,70,40,30.13,29.92,16,6,0,0.39
2013-9-10,65.5,60.5,56.5,58.1,56.7,55.4,96,88,72,30.28,30.07,8,3,0,0.28
2013-9-11,64.9,59.8,57.4,63.4,58.2,55.7,96,94,91,30.34,30.24,13,5,0,1.66
2013-9-12,61.9,58.7,55.0,61.6,58.0,54.7,99,97,95,30.38,30.27,16,9,0,1.08
2013-9-13,73.9,62.5,57.6,64.8,60.4,57.3,99,93,68,30.28,29.93,11,4,0,0.62
2013-9-14,77.7,63.1,56.3,60.2,57.4,54.5,99,84,49,30.11,29.91,11,4,0,0.40
2013-9-15,58.1,56.0,51.6,57.6,55.4,51.3,99,98,90,30.36,30.10,13,7,0,0.80
2013-9-16,69.8,57.3,51.3,59.5,54.7,51.0,99,92,69,30.34,30.08,9,4,0,0.02
2013-9-17,81.7,64.3,47.1,61.1,53.7,46.8,99,73,39,30.12,29.85,9,2,0,0.00
2013-9-18,81.5,65.5,54.7,54.9,51.1,46.8,92,63,31,29.97,29.81,14,4,0,0.04
2013-9-19,66.2,56.2,46.4,51.5,43.9,37.7,98,66,43,30.24,29.94,15,5,0,0.04
2013-9-20,70.9,55.1,40.6,50.9,45.2,39.8,99,73,38,30.26,30.08,8,3,0,0.00
2013-9-21,78.4,61.2,44.8,53.5,48.4,43.5,96,67,38,30.10,29.83,10,3,0,0.00
2013-9-22,77.5,60.7,52.2,58.6,49.7,44.9,96,70,37,29.85,29.61,16,5,0,0.18
2013-9-23,67.1,55.9,43.7,51.5,41.2,35.3,99,61,35,30.08,29.57,29,12,0,0.25
2013-9-24,71.2,54.9,36.3,47.4,41.6,33.7,95,64,38,30.18,29.91,10,3,0,0.00
2013-9-25,77.9,58.4,40.5,52.3,45.1,39.2,95,65,36,29.90,29.47,11,5,0,0.00
2013-9-26,69.3,55.0,41.0,50.5,44.6,37.0,93,70,45,29.83,29.60,14,4,0,0.00
2013-9-27,52.9,45.6,38.3,50.9,43.0,32.3,99,91,65,30.03,29.73,15,8,0,0.14
2013-9-28,63.9,47.7,33.6,43.9,36.1,27.2,95,66,39,30.17,30.02,11,4,0,0.00
2013-9-29,71.8,54.7,36.7,46.4,39.2,33.3,89,59,31,30.15,29.91,9,3,0,0.00
2013-9-30,76.8,62.4,49.3,52.5,40.9,31.2,73,46,30,29.96,29.79,12,3,0,0.00
2013-10-1,68.0,56.8,47.1,46.0,41.0,35.0,81,57,42,30.16,29.94,11,5,0,0.00
2013-10-2,78.1,57.7,40.8,48.9,41.6,36.2,95,59,27,30.01,29.92,14,5,0,0.00
2013-10-3,64.0,49.4,36.9,47.4,41.7,35.1,99,77,49,29.98,29.74,15,5,0,0.23
2013-10-4,43.5,37.0,32.4,42.4,29.8,21.1,99,77,55,30.24,29.81,26,14,0,0.18
2013-10-5,56.8,45.9,31.8,22.4,16.9,9.8,64,35,17,30.21,30.10,32,16,0,0.02
2013-10-6,70.3,54.6,38.5,39.3,30.8,17.4,81,43,26,30.30,30.17,14,5,0,0.00
2013-10-7,72.0,53.1,34.5,45.4,37.5,29.3,94,61,29,30.27,29.95,8,3,0,0.00
2013-10-8,76.5,56.7,45.0,42.1,36.7,31.9,73,50,23,29.94,29.74,12,4,0,0.00
2013-10-9,62.8,52.8,43.0,43.0,39.5,33.9,92,62,45,30.01,29.83,12,6,0,0.00
2013-10-10,57.7,48.8,40.5,47.6,42.4,35.9,99,80,54,29.99,29.50,16,3,0,0.02
2013-10-11,58.6,51.1,40.6,39.4,33.4,31.1,88,52,39,30.10,29.44,21,10,0,0.00
2013-10-12,55.4,44.1,37.4,41.6,38.0,35.6,95,80,58,30.22,30.09,7,1,0,0.00
2013-10-13,63.5,47.5,32.5,46.1,39.7,32.2,99,77,47,30.20,29.89,9,3,0,0.00
2013-10-14,48.9,43.7,34.7,44.3,36.7,26.3,99,77,59,30.21,29.82,23,10,0,0.15
2013-10-15,44.2,36.1,27.3,26.6,24.7,22.4,87,64,48,30.33,30.20,11,6,0,0.00
2013-10-16,56.3,37.8,21.7,30.9,23.4,16.1,98,63,21,30.22,29.99,14,3,0,0.00
2013-10-17,47.8,38.2,30.2,35.7,30.7,21.9,99,75,55,30.13,30.01,11,5,0,0.01
2013-10-18,46.6,34.6,27.1,31.6,28.0,23.6,99,79,40,30.22,30.09,16,3,0,0.14
2013-10-19,60.6,43.9,27.1,35.8,29.3,23.9,94,59,32,30.10,29.91,7,2,0,0.00
2013-10-20,51.8,39.8,28.2,38.7,32.9,26.6,99,79,39,30.15,29.89,20,5,0,0.08
2013-10-21,58.6,42.4,24.6,33.3,29.0,23.7,99,65,34,30.18,30.08,22,5,0,0.00
2013-10-22,65.7,48.6,32.0,39.0,33.6,28.6,88,59,31,30.26,30.12,13,3,0,0.00
2013-10-23,64.6,49.7,35.1,40.8,34.6,30.1,91,59,28,30.29,30.11,12,5,0,0.00
2013-10-24,55.8,39.1,28.2,41.1,34.5,28.0,99,85,54,30.33,30.22,7,2,0,0.00
2013-10-25,71.6,48.8,28.9,42.0,32.6,24.1,99,62,18,30.29,30.10,11,3,0,0.00
2013-10-26,61.0,47.3,31.8,38.9,33.8,29.5,91,62,36,30.39,30.14,10,3,0,0.00
2013-10-27,70.0,51.3,32.0,39.0,30.4,26.0,91,50,20,30.17,29.83,11,3,0,0.00
2013-10-28,51.1,34.4,29.8,34.2,31.3,29.6,99,90,44,30.09,29.88,12,7,0,0.00
2013-10-29,38.7,32.7,29.8,35.5,31.7,29.6,99,96,85,30.05,29.88,6,3,0,0.02
2013-10-30,42.1,33.9,28.8,38.6,32.7,26.3,99,95,69,29.90,29.76,8,1,0,0.17
2013-10-31,53.2,41.0,30.6,33.5,26.7,21.6,90,58,35,29.88,29.75,20,5,0,0.00
2013-11-1,52.0,39.5,24.4,33.4,27.1,21.4,91,64,31,30.24,29.89,23,9,0,0.02
2013-11-2,56.7,36.7,21.9,31.7,25.7,20.2,94,70,33,30.25,29.76,9,2,0,0.00
2013-11-3,66.0,46.7,31.3,31.5,25.1,15.2,83,47,17,29.82,29.53,32,8,0,0.57
2013-11-4,40.8,33.7,24.4,25.2,17.6,9.7,73,52,37,30.01,29.82,26,7,0,0.00
2013-11-5,41.0,32.0,18.7,26.7,13.7,6.2,82,49,26,30.15,29.91,23,10,0,0.03
2013-11-6,51.1,35.4,16.2,21.7,17.5,11.1,85,51,29,30.36,30.09,21,6,0,0.01
2013-11-7,55.0,36.2,21.0,27.2,23.0,17.2,85,62,32,30.42,29.98,7,2,0,0.00
2013-11-8,66.6,52.8,28.6,26.5,23.9,21.6,83,35,20,30.05,29.78,27,7,0,0.06
2013-11-9,56.7,40.6,28.2,32.8,28.4,24.4,89,65,37,30.30,30.05,7,2,0,0.00
2013-11-10,64.0,43.8,29.5,36.1,29.9,22.6,92,62,31,30.28,30.16,7,2,0,0.00
2013-11-11,60.8,39.5,28.4,31.6,26.7,22.0,96,64,26,30.68,30.20,16,4,0,0.00
2013-11-12,54.0,34.9,24.6,35.1,29.2,24.4,99,82,45,30.66,30.37,6,1,0,0.00
2013-11-13,67.3,48.0,26.2,28.2,22.2,15.6,84,41,14,30.38,30.02,16,4,0,0.00
2013-11-14,54.1,44.6,32.9,35.9,31.9,25.0,89,62,38,30.10,29.75,14,6,0,0.00
2013-11-15,61.3,41.6,26.4,33.9,27.9,21.5,95,64,22,29.75,29.44,17,4,0,0.00
2013-11-16,57.0,40.5,27.1,30.5,24.2,20.4,85,55,25,29.52,29.26,21,6,0,0.00
2013-11-17,53.4,37.5,23.2,29.0,17.8,12.7,95,48,22,30.08,29.49,34,10,0,0.04
2013-11-18,58.1,35.3,19.4,25.1,19.5,14.0,81,57,23,30.15,30.00,13,5,0,0.00
2013-11-19,56.8,42.2,25.2,31.8,24.0,16.0,77,50,29,30.00,29.69,19,5,0,0.00
2013-11-20,56.5,42.5,22.8,31.1,26.5,15.8,79,55,34,30.01,29.75,32,7,0,4.53
2013-11-21,22.6,15.3,8.4,16.5,10.7,7.0,95,82,65,30.55,30.00,20,9,0,2.41
2013-11-22,32.9,19.7,5.9,19.8,11.8,3.9,93,73,49,30.61,30.43,7,1,0,0.00
2013-11-23,33.4,24.1,17.1,22.1,17.3,10.9,89,75,57,30.63,30.31,9,2,0,0.00
2013-11-24,39.7,27.1,16.7,27.1,20.6,15.3,96,78,49,30.30,29.93,13,3,0,0.00
2013-11-25,43.3,35.0,24.3,26.1,22.1,17.9,89,61,44,30.32,30.01,15,5,0,0.00
2013-11-26,52.3,35.6,22.1,26.7,21.5,18.8,90,61,29,30.40,30.26,17,6,0,0.00
2013-11-27,64.0,37.7,20.5,28.7,22.2,17.8,93,59,19,30.24,30.01,18,2,0,0.00
2013-11-28,46.0,31.1,21.7,28.9,23.0,18.7,94,74,49,30.26,30.11,6,1,0,0.00
2013-11-29,62.2,41.9,22.6,24.8,21.2,16.3,94,50,17,30.18,30.06,14,4,0,0.00
2013-11-30,55.9,40.8,27.5,25.4,20.9,17.7,73,46,26,30.21,30.10,10,3,0,0.00
2013-12-1,56.3,42.9,24.6,26.5,23.0,17.2,78,48,26,30.18,29.83,17,5,0,0.00
2013-12-2,57.6,49.4,41.7,28.4,25.2,21.4,53,39,29,29.86,29.51,32,10,0,0.08
2013-12-3,45.1,36.6,29.3,30.6,23.9,21.5,75,61,43,29.54,29.43,18,4,0,0.00
2013-12-4,15.4,3.3,-8.0,4.4,-2.7,-14.0,87,76,50,30.00,29.65,21,7,0,0.89
2013-12-5,24.8,-1.8,-18.0,8.0,-8.4,-22.3,86,75,38,30.05,29.90,6,1,0,0.00
2013-12-6,14.4,-3.1,-13.0,1.6,-8.4,-17.1,86,78,50,30.16,30.04,5,1,0,0.00
2013-12-7,19.8,0.8,-12.8,3.8,-4.4,-17.2,89,79,49,30.12,29.68,6,2,0,0.00
2013-12-8,20.1,4.3,-6.0,6.0,-0.2,-9.6,91,82,53,29.99,29.61,6,1,0,0.00
2013-12-9,22.6,3.7,-15.0,2.9,-4.5,-18.6,89,70,41,30.03,29.93,10,2,0,0.00
2013-12-10,39.2,25.1,7.2,21.9,10.0,-3.0,76,52,40,30.19,29.81,35,9,0,0.11
2013-12-11,24.4,15.0,7.0,18.2,11.2,5.4,94,85,74,30.33,30.20,6,2,0,0.00
2013-12-12,47.5,27.8,12.9,24.8,15.3,5.9,80,61,36,30.28,29.92,9,2,0,0.00
2013-12-13,47.7,34.5,18.3,23.8,17.7,11.5,78,51,30,30.14,29.78,20,8,0,0.14
2013-12-14,41.7,31.8,23.2,20.7,17.7,13.9,79,57,36,30.26,30.14,11,4,0,0.00
2013-12-15,54.1,39.7,21.7,25.3,19.1,14.7,77,45,25,30.16,30.04,27,4,0,0.00
2013-12-16,59.2,47.8,36.9,22.5,18.7,15.3,47,32,20,30.25,30.06,24,11,0,0.00
2013-12-17,56.7,42.0,26.6,23.6,18.5,14.9,69,41,22,30.33,30.03,9,2,0,0.00
2013-12-18,61.0,46.2,33.8,25.7,19.1,14.7,57,36,18,30.03,29.70,10,3,0,0.00
2013-12-19,39.7,29.3,14.7,25.4,19.2,9.2,86,67,44,29.85,29.53,23,7,0,2.59
2013-12-20,25.7,16.8,10.4,18.9,14.5,8.1,98,91,75,29.82,29.58,8,1,0,0.00
2013-12-21,30.9,22.0,9.9,28.2,18.8,8.1,98,88,66,29.85,29.48,9,2,0,0.00
2013-12-22,37.6,25.0,16.7,22.5,18.4,14.3,99,78,43,30.19,29.84,19,6,0,0.17
2013-12-23,33.8,20.2,9.1,23.7,16.8,7.5,97,87,59,30.27,30.03,5,1,0,0.04
2013-12-24,46.6,33.7,17.1,31.3,21.8,11.4,89,63,43,30.29,29.88,28,11,0,0.06
2013-12-25,39.4,28.3,18.3,19.3,14.7,9.3,88,59,36,30.38,30.17,15,3,0,0.00
2013-12-26,51.1,37.7,22.6,21.0,14.8,9.7,84,43,22,30.30,30.14,12,4,0,0.00
2013-12-27,56.5,38.1,21.6,28.0,22.4,16.7,85,56,29,30.28,30.04,8,2,0,0.00
2013-12-28,53.1,34.5,18.3,26.5,20.9,10.2,86,60,30,30.19,29.87,21,10,0,2.08
2013-12-29,35.1,22.8,9.0,18.4,13.8,6.9,96,70,44,30.22,29.85,14,3,0,0.00
2013-12-30,46.0,34.6,21.6,16.2,14.8,13.5,75,46,27,30.19,29.92,20,7,0,0.00
2013-12-31,54.9,40.9,21.9,25.0,21.5,15.2,75,48,28,30.05,29.88,19,6,0,0.00
2014-1-1,39.9,29.6,15.4,30.5,23.2,13.0,97,78,50,30.28,29.85,21,7,0,0.07
2014-1-2,41.4,24.6,12.7,24.4,17.0,11.1,98,76,38,30.25,29.95,8,2,0,0.00